Home > Weather > Red Deer > Past weeks

Flag for Canada Past Weather in Red Deer, Alberta, Canada — Yesterday and Last 2 Weeks

Now
61 °F

Partly cloudy.


Feels Like: 61 °F
Forecast: 53 / 66 °F
Wind: 3 mph from West

Location: Red Deer

Current Time: Jul 30, 2016 at 3:25:30 AM

Latest Report: Jul 30, 2016 at 3:00 AM


Visibility: 15 mi

Pressure: 29.75 "Hg (26.89 "Hg at 857m altitude)

Humidity: 83%

Dew Point: 55 °F

Location of Red DeerLocation

Past Weather in Red Deer — Graph

°F

Red Deer Temperature Yesterday

Maximum temperature yesterday: 81 °F (at 4:00 PM)
Minimum temperature yesterday: 50 °F (at 5:00 AM)
Average temperature yesterday: 65 °F

High & Low Weather Summary for the Past Weeks

 TemperatureHumidityPressure
High81 °F (Jul 27, 3:00 PM)100% (Jul 15, 1:00 AM)30.21 "Hg (Jul 15, 1:00 AM)
Low46 °F (Jul 18, 6:00 AM)36% (Jul 21, 2:00 PM)29.78 "Hg (Jul 30, 1:00 AM)
Average63 °F78%30.03 "Hg
* Reported Jul 15 1:00 AM — Jul 30 1:00 AM, Red Deer, Weather by CustomWeather, © 2016

Note: Actual official high and low records may vary slightly from our data, if they occured in-between our weather recording intervals... More about our weather records

Advertising

Red Deer Weather History for the Previous 24 Hours

Scroll right to see more
 ConditionsComfort  
Time TempWeatherWind HumidityBarometerVisibility
1:00 AM
Sat, Jul 30
61 °FPassing clouds.2 mph83%29.78 "Hg15 mi
12:00 AM63 °FPassing clouds.7 mph77%29.80 "Hg15 mi
11:00 PM
Fri, Jul 29
63 °FPassing clouds.8 mph77%29.82 "Hg15 mi
10:00 PM63 °FScattered clouds.5 mph83%29.85 "Hg15 mi
9:00 PM68 °FPartly sunny.8 mph73%29.85 "Hg15 mi
8:00 PM75 °FScattered clouds.12 mph54%29.87 "Hg15 mi
7:00 PM77 °FPassing clouds.9 mph54%29.90 "Hg15 mi
6:00 PM79 °FPassing clouds.9 mph48%29.91 "Hg15 mi
5:00 PM81 °FPassing clouds.8 mph45%29.93 "Hg15 mi
4:00 PM81 °FPassing clouds.9 mph42%29.95 "Hg15 mi
3:00 PM79 °FPassing clouds.9 mph48%29.97 "Hg15 mi
2:00 PM79 °FPassing clouds.6 mph48%29.99 "Hg15 mi
1:00 PM75 °FPassing clouds.7 mph57%30.01 "Hg15 mi
12:00 PM73 °FPassing clouds.6 mph57%30.03 "Hg15 mi
11:00 AM70 °FPassing clouds.2 mph64%30.05 "Hg15 mi
10:00 AM66 °FPassing clouds.2 mph73%30.06 "Hg15 mi
9:00 AM61 °FPassing clouds.3 mph83%30.07 "Hg15 mi
8:00 AM55 °FPassing clouds.6 mph88%30.09 "Hg15 mi
7:00 AM54 °FPassing clouds.6 mph88%30.09 "Hg15 mi
6:00 AM50 °FPassing clouds.6 mph94%30.09 "Hg15 mi
5:00 AM50 °FFog.6 mph94%30.08 "Hg15 mi
4:00 AM52 °FClear.5 mph94%30.09 "Hg15 mi
3:00 AM54 °FClear.5 mph94%30.08 "Hg15 mi
Weather by CustomWeather, © 2016

See weather overviewHow to use our weather pages